Back to catalog

STARLINK-35281

AliveCommunicationsVLEO
NORAD 65824·PAYLOAD·🇺🇸 United States

Launched Sep 29, 2025 from Vandenberg Space Force Base

Loading…

Next Passes (next 24 hours)

TLE

FreshSource: CelesTrak SupGP

Epoch: Sep 14, 2026, 14:37 UTC

1 65824C 25221B   26257.60951389  .00022540  00000+0  66613-3 0  2574
2 65824  53.1575 288.9836 0001259  75.6550 298.8004 15.34371241    15

Track STARLINK-35281 in real time with AllMySat

Download on the App Store